EW8832 Weather Reports


Display with metric or nautical units.
time (UTC)temp
F
wind
direction
speed
MPH
gust
MPH
rain 1hr
in
rain 24hr
in
rain mn
in
humidity
%
barometer
mb
20260831122039 75 171 0.0 0.0 0.00 0.00 0.00 70 1013.2
20260831121538 75 171 0.0 0.0 0.00 0.00 0.00 71 1013.2
20260831121038 75 171 0.0 0.0 0.00 0.00 0.00 71 1013.2
20260831120537 74 171 0.0 0.0 0.00 0.00 0.00 71 1013.2
20260831120037 74 171 0.0 1.0 0.00 0.00 0.00 70 1013.2
20260831115535 75 171 0.0 3.0 0.00 0.00 0.00 69 1013.1
20260831114540 75 171 0.0 3.0 0.00 0.00 0.00 68 1013.0
20260831114038 76 171 2.0 4.0 0.00 0.00 0.00 67 1012.9
20260831113533 76 171 2.0 5.0 0.00 0.00 0.00 67 1012.8
20260831113033 76 171 2.0 5.0 0.00 0.00 0.00 67 1012.7
20260831112531 76 173 3.0 6.0 0.00 0.00 0.00 67 1012.7
20260831112031 77 163 3.0 7.0 0.00 0.00 0.00 66 1012.7
20260831111530 77 167 4.0 7.0 0.00 0.00 0.00 66 1012.7
20260831111032 77 142 3.0 5.0 0.00 0.00 0.00 66 1012.6
20260831110530 77 171 3.0 5.0 0.00 0.00 0.00 65 1012.6
20260831110034 77 178 3.0 6.0 0.00 0.00 0.00 65 1012.6
20260831105529 77 176 3.0 7.0 0.00 0.00 0.00 64 1012.7
20260831104529 78 186 4.0 7.0 0.00 0.00 0.00 64 1012.6
20260831104028 78 188 4.0 7.0 0.00 0.00 0.00 64 1012.5
20260831103528 78 184 2.0 8.0 0.00 0.00 0.00 63 1012.5
20260831103027 78 173 4.0 9.0 0.00 0.00 0.00 63 1012.5
20260831102527 78 179 4.0 9.0 0.00 0.00 0.00 63 1012.5
20260831102031 78 180 4.0 9.0 0.00 0.00 0.00 62 1012.5
20260831101530 78 175 5.0 8.0 0.00 0.00 0.00 62 1012.4
20260831101030 78 177 5.0 12.0 0.00 0.00 0.00 62 1012.4
20260831100526 78 174 6.0 12.0 0.00 0.00 0.00 62 1012.4
20260831100026 78 183 5.0 10.0 0.00 0.00 0.00 63 1012.5
20260831095526 77 168 5.0 10.0 0.00 0.00 0.00 64 1012.5
20260831094527 77 201 3.0 7.0 0.00 0.00 0.00 64 1012.4
20260831094025 77 188 3.0 7.0 0.00 0.00 0.00 64 1012.4
20260831093525 77 183 3.0 6.0 0.00 0.00 0.00 64 1012.3
20260831093025 77 194 3.0 6.0 0.00 0.00 0.00 63 1012.3
20260831092523 77 179 3.0 6.0 0.00 0.00 0.00 63 1012.2
20260831092023 77 189 3.0 6.0 0.00 0.00 0.00 62 1012.3
20260831091522 77 184 2.0 4.0 0.00 0.00 0.00 62 1012.2
20260831091026 78 182 2.0 5.0 0.00 0.00 0.00 62 1012.2
20260831090520 78 181 3.0 5.0 0.00 0.00 0.00 61 1012.2
20260831090024 78 181 3.0 5.0 0.00 0.00 0.00 61 1012.1
20260831085519 79 197 2.0 5.0 0.00 0.00 0.00 60 1012.1
20260831084518 79 167 3.0 5.0 0.00 0.00 0.00 59 1012.1
20260831084017 79 171 3.0 5.0 0.00 0.00 0.00 59 1012.1
20260831083517 79 179 3.0 7.0 0.00 0.00 0.00 58 1012.1
20260831083017 79 165 5.0 7.0 0.00 0.00 0.00 58 1011.9
20260831082516 79 169 4.0 8.0 0.00 0.00 0.00 58 1012.0
20260831082016 80 177 3.0 7.0 0.00 0.00 0.00 57 1011.9
20260831081516 80 180 3.0 7.0 0.00 0.00 0.00 57 1011.9
20260831081016 80 174 5.0 9.0 0.00 0.00 0.00 56 1011.9
20260831080515 80 164 5.0 11.0 0.00 0.00 0.00 56 1011.9
20260831080014 80 178 6.0 11.0 0.00 0.00 0.00 55 1011.8
20260831075514 80 167 6.0 9.0 0.00 0.00 0.00 55 1011.8
20260831074512 80 153 6.0 9.0 0.00 0.00 0.00 55 1011.7
20260831074011 80 155 6.0 11.0 0.00 0.00 0.00 55 1011.8
20260831073513 80 160 5.0 8.0 0.00 0.00 0.00 55 1011.9
20260831073020 80 161 4.0 8.0 0.00 0.00 0.00 55 1012.0
20260831072508 79 153 4.0 8.0 0.00 0.00 0.00 55 1012.0
20260831072008 79 171 3.0 8.0 0.00 0.00 0.00 55 1012.1
20260831071508 79 177 4.0 8.0 0.00 0.00 0.00 55 1012.1
20260831071007 79 202 2.0 5.0 0.00 0.00 0.00 54 1012.1
20260831070506 79 194 2.0 6.0 0.00 0.00 0.00 53 1012.1
20260831070006 80 179 2.0 7.0 0.00 0.00 0.00 53 1012.1
20260831065507 80 163 4.0 8.0 0.00 0.00 0.00 52 1012.0
20260831064507 80 164 3.0 6.0 0.00 0.00 0.00 52 1012.1
20260831064004 80 159 4.0 8.0 0.00 0.00 0.00 51 1012.1
20260831063504 81 163 5.0 9.0 0.00 0.00 0.00 51 1012.1
20260831063012 81 167 5.0 9.0 0.00 0.00 0.00 51 1012.2
20260831062504 81 176 5.0 9.0 0.00 0.00 0.00 51 1012.3
20260831062006 81 176 5.0 9.0 0.00 0.00 0.00 50 1012.3
20260831061504 81 165 6.0 8.0 0.00 0.00 0.00 50 1012.2
20260831061004 81 155 6.0 9.0 0.00 0.00 0.00 50 1012.2
20260831060506 80 159 6.0 10.0 0.00 0.00 0.00 51 1012.2
20260831060004 80 140 5.0 9.0 0.00 0.00 0.00 51 1012.2
20260831055503 80 145 4.0 8.0 0.00 0.00 0.00 50 1012.3
20260831054506 81 165 4.0 7.0 0.00 0.00 0.00 50 1012.3
20260831054100 81 173 4.0 7.0 0.00 0.00 0.00 49 1012.1
20260831053600 81 184 3.0 6.0 0.00 0.00 0.00 49 1012.1
20260831053059 81 171 4.0 8.0 0.00 0.00 0.00 49 1012.1
20260831052558 82 155 5.0 11.0 0.00 0.00 0.00 48 1012.1
20260831052057 82 170 5.0 12.0 0.00 0.00 0.00 48 1012.0
20260831051615 82 150 5.0 12.0 0.00 0.00 0.00 48 1012.0
20260831051056 82 160 6.0 9.0 0.00 0.00 0.00 48 1012.0
20260831050556 82 157 5.0 9.0 0.00 0.00 0.00 48 1012.0
20260831050056 82 173 5.0 11.0 0.00 0.00 0.00 48 1012.0
20260831045554 82 162 5.0 11.0 0.00 0.00 0.00 48 1012.0
20260831044554 83 173 8.0 12.0 0.00 0.00 0.00 48 1011.9
20260831044055 82 151 7.0 10.0 0.00 0.00 0.00 48 1011.9
20260831043553 82 157 6.0 9.0 0.00 0.00 0.00 49 1011.9
20260831043056 82 166 6.0 8.0 0.00 0.00 0.00 50 1011.8
20260831042554 82 170 5.0 9.0 0.00 0.00 0.00 50 1011.8
20260831042053 82 178 5.0 9.0 0.00 0.00 0.00 50 1011.9
20260831041600 82 161 5.0 9.0 0.00 0.00 0.00 50 1011.9
20260831041053 83 167 5.0 9.0 0.00 0.00 0.00 51 1011.9
20260831040553 83 168 6.0 10.0 0.00 0.00 0.00 51 1011.8
20260831040054 83 151 5.0 10.0 0.00 0.00 0.00 51 1011.9
20260831035553 83 152 6.0 9.0 0.00 0.00 0.00 51 1011.8
20260831034553 83 173 9.0 17.0 0.00 0.00 0.00 51 1011.7
20260831034053 83 165 5.0 9.0 0.00 0.00 0.00 51 1011.7
20260831033552 84 159 5.0 10.0 0.00 0.00 0.00 51 1011.6
20260831033053 84 157 6.0 12.0 0.00 0.00 0.00 50 1011.6
20260831032552 84 165 6.0 12.0 0.00 0.00 0.00 50 1011.6
20260831032055 84 153 7.0 12.0 0.00 0.00 0.00 49 1011.5
20260831031551 85 139 7.0 15.0 0.00 0.00 0.00 49 1011.4
20260831031051 85 149 8.0 12.0 0.00 0.00 0.00 49 1011.5
20260831030552 85 145 7.0 13.0 0.00 0.00 0.00 49 1011.5
20260831030108 85 150 8.0 16.0 0.00 0.00 0.00 48 1011.4
20260831025551 85 148 7.0 13.0 0.00 0.00 0.00 48 1011.3
20260831024621 86 148 9.0 17.0 0.00 0.00 0.00 47 1011.2
20260831024051 86 159 9.0 14.0 0.00 0.00 0.00 47 1011.2
20260831023550 86 154 7.0 14.0 0.00 0.00 0.00 47 1011.1
20260831023050 86 142 8.0 14.0 0.00 0.00 0.00 46 1011.1
20260831022550 86 152 9.0 15.0 0.00 0.00 0.00 46 1011.1
20260831022050 86 123 11.0 15.0 0.00 0.00 0.00 46 1011.0
20260831021550 86 161 6.0 12.0 0.00 0.00 0.00 45 1011.0
20260831021050 86 136 7.0 12.0 0.00 0.00 0.00 45 1010.9
20260831020550 86 151 7.0 10.0 0.00 0.00 0.00 45 1010.9
20260831020050 86 161 5.0 8.0 0.00 0.00 0.00 45 1010.7
20260831015549 86 163 4.0 9.0 0.00 0.00 0.00 44 1010.7
20260831014550 85 170 6.0 8.0 0.00 0.00 0.00 44 1010.6
20260831014050 86 153 3.0 6.0 0.00 0.00 0.00 44 1010.6
20260831013549 86 161 4.0 6.0 0.00 0.00 0.00 43 1010.4
20260831013109 86 157 4.0 6.0 0.00 0.00 0.00 43 1010.3
20260831012549 86 153 3.0 6.0 0.00 0.00 0.00 42 1010.3
20260831012049 87 153 3.0 6.0 0.00 0.00 0.00 42 1010.2
20260831011550 87 150 3.0 6.0 0.00 0.00 0.00 41 1010.2
20260831011049 88 152 3.0 7.0 0.00 0.00 0.00 41 1010.2
20260831010549 88 147 3.0 7.0 0.00 0.00 0.00 40 1010.2
20260831010049 88 155 3.0 6.0 0.00 0.00 0.00 39 1010.2
20260831005548 89 156 4.0 8.0 0.00 0.00 0.00 39 1010.2
20260831004549 90 153 4.0 7.0 0.00 0.00 0.00 37 1010.2
20260831004048 91 155 2.0 7.0 0.00 0.00 0.00 37 1010.2
20260831003547 91 173 3.0 4.0 0.00 0.00 0.00 36 1010.2
20260831003047 92 184 2.0 4.0 0.00 0.00 0.00 36 1010.2
20260831002547 92 184 2.0 5.0 0.00 0.00 0.00 36 1010.2
20260831002047 93 177 2.0 7.0 0.00 0.00 0.00 35 1010.2
20260831001547 93 169 2.0 7.0 0.00 0.00 0.00 35 1010.2
20260831001046 93 185 2.0 7.0 0.00 0.00 0.00 34 1010.2
20260831000547 94 189 3.0 7.0 0.00 0.00 0.00 33 1010.2
20260831000046 94 170 3.0 9.0 0.00 0.00 0.00 33 1010.2
20260830235546 94 193 4.0 8.0 0.00 0.00 0.00 32 1010.3
20260830234546 95 180 3.0 11.0 0.00 0.00 0.00 32 1010.3
20260830234049 95 193 6.0 11.0 0.00 0.00 0.00 32 1010.3
20260830233546 95 190 4.0 8.0 0.00 0.00 0.00 32 1010.3
20260830233046 96 177 4.0 12.0 0.00 0.00 0.00 31 1010.4
20260830232546 96 167 4.0 12.0 0.00 0.00 0.00 30 1010.4
20260830232046 96 178 6.0 14.0 0.00 0.00 0.00 30 1010.4
20260830231546 97 165 6.0 12.0 0.00 0.00 0.00 30 1010.4
20260830231049 97 184 2.0 9.0 0.00 0.00 0.00 30 1010.3
20260830230545 97 221 5.0 9.0 0.00 0.00 0.00 30 1010.4
20260830230045 97 207 3.0 11.0 0.00 0.00 0.00 30 1010.4
20260830225545 97 217 7.0 11.0 0.00 0.00 0.00 29 1010.3
20260830224545 97 182 4.0 11.0 0.00 0.00 0.00 30 1010.3
20260830224046 97 162 6.0 11.0 0.00 0.00 0.00 31 1010.3
20260830223545 97 196 5.0 10.0 0.00 0.00 0.00 31 1010.3
20260830223045 97 185 4.0 10.0 0.00 0.00 0.00 30 1010.4
20260830222544 97 231 4.0 12.0 0.00 0.00 0.00 31 1010.3
20260830222045 97 197 4.0 12.0 0.00 0.00 0.00 31 1010.3
20260830221548 98 137 6.0 13.0 0.00 0.00 0.00 30 1010.4
20260830221045 98 178 7.0 13.0 0.00 0.00 0.00 30 1010.4
20260830220543 98 230 4.0 11.0 0.00 0.00 0.00 30 1010.4
20260830220042 98 245 5.0 11.0 0.00 0.00 0.00 30 1010.4
20260830215542 98 188 6.0 11.0 0.00 0.00 0.00 29 1010.4
20260830214541 98 249 5.0 10.0 0.00 0.00 0.00 30 1010.5
20260830214044 98 166 5.0 15.0 0.00 0.00 0.00 30 1010.6
20260830213543 98 179 8.0 16.0 0.00 0.00 0.00 30 1010.5
20260830213040 98 193 6.0 16.0 0.00 0.00 0.00 29 1010.6
20260830212540 98 196 8.0 14.0 0.00 0.00 0.00 29 1010.6
20260830212040 98 145 4.0 15.0 0.00 0.00 0.00 30 1010.5
20260830211538 98 150 5.0 14.0 0.00 0.00 0.00 30 1010.6
20260830211039 98 171 3.0 14.0 0.00 0.00 0.00 30 1010.7
20260830210537 97 215 6.0 18.0 0.00 0.00 0.00 30 1010.8
20260830210037 97 205 6.0 18.0 0.00 0.00 0.00 30 1010.8
20260830205537 98 189 3.0 13.0 0.00 0.00 0.00 29 1010.8
20260830204540 98 252 3.0 10.0 0.00 0.00 0.00 29 1010.9
20260830204038 98 216 5.0 12.0 0.00 0.00 0.00 29 1011.0
20260830203537 98 196 5.0 14.0 0.00 0.00 0.00 29 1011.1
20260830203047 98 146 5.0 12.0 0.00 0.00 0.00 30 1011.0
20260830202534 98 242 5.0 13.0 0.00 0.00 0.00 30 1011.1
20260830202033 97 182 8.0 13.0 0.00 0.00 0.00 31 1011.2
20260830201543 97 180 5.0 11.0 0.00 0.00 0.00 31 1011.2
20260830201033 97 164 6.0 14.0 0.00 0.00 0.00 31 1011.3
20260830200534 97 195 7.0 14.0 0.00 0.00 0.00 31 1011.4
20260830200031 97 182 6.0 16.0 0.00 0.00 0.00 32 1011.3
20260830195530 97 167 7.0 15.0 0.00 0.00 0.00 32 1011.3
20260830194530 96 259 4.0 11.0 0.00 0.00 0.00 32 1011.5
20260830194028 96 199 3.0 11.0 0.00 0.00 0.00 32 1011.4
20260830193529 96 244 5.0 12.0 0.00 0.00 0.00 33 1011.5
20260830193029 97 190 4.0 14.0 0.00 0.00 0.00 33 1011.6
20260830192527 97 218 4.0 10.0 0.00 0.00 0.00 32 1011.6
20260830192031 97 181 6.0 12.0 0.00 0.00 0.00 32 1011.7
20260830191527 97 143 7.0 11.0 0.00 0.00 0.00 32 1011.7
20260830191026 96 219 3.0 13.0 0.00 0.00 0.00 34 1011.7
20260830190526 96 184 5.0 13.0 0.00 0.00 0.00 33 1011.8
20260830190033 97 250 7.0 10.0 0.00 0.00 0.00 33 1011.9
20260830185529 96 261 4.0 14.0 0.00 0.00 0.00 35 1011.9
20260830184524 96 304 5.0 15.0 0.00 0.00 0.00 34 1012.0
20260830184024 96 284 7.0 15.0 0.00 0.00 0.00 34 1012.1
20260830183521 96 254 5.0 11.0 0.00 0.00 0.00 35 1012.1
20260830183022 95 253 4.0 11.0 0.00 0.00 0.00 35 1012.1
20260830182521 96 204 3.0 14.0 0.00 0.00 0.00 35 1012.1
20260830182023 96 271 6.0 14.0 0.00 0.00 0.00 34 1012.3
20260830181520 96 209 6.0 12.0 0.00 0.00 0.00 34 1012.4
20260830181022 95 213 4.0 13.0 0.00 0.00 0.00 36 1012.3
20260830180521 94 167 5.0 13.0 0.00 0.00 0.00 36 1012.5
20260830180017 94 188 3.0 11.0 0.00 0.00 0.00 36 1012.5
20260830175516 94 163 7.0 11.0 0.00 0.00 0.00 36 1012.6
20260830174516 93 226 6.0 11.0 0.00 0.00 0.00 37 1012.9
20260830174016 93 216 4.0 13.0 0.00 0.00 0.00 37 1012.9
20260830173516 93 194 5.0 15.0 0.00 0.00 0.00 37 1013.0
20260830173015 93 202 6.0 14.0 0.00 0.00 0.00 37 1013.1
20260830172515 93 232 6.0 14.0 0.00 0.00 0.00 37 1013.2
20260830172017 93 311 5.0 11.0 0.00 0.00 0.00 37 1013.2
20260830171513 93 284 5.0 18.0 0.00 0.00 0.00 37 1013.2
20260830171012 93 171 3.0 16.0 0.00 0.00 0.00 37 1013.3
20260830170513 92 188 7.0 14.0 0.00 0.00 0.00 38 1013.4
20260830170010 92 175 6.0 15.0 0.00 0.00 0.00 38 1013.4
20260830165512 92 201 6.0 14.0 0.00 0.00 0.00 38 1013.5
20260830164519 91 194 5.0 18.0 0.00 0.00 0.00 39 1013.6
20260830164006 91 155 9.0 18.0 0.00 0.00 0.00 39 1013.7
20260830163506 91 216 7.0 15.0 0.00 0.00 0.00 40 1013.7
20260830163004 91 188 10.0 17.0 0.00 0.00 0.00 40 1013.9
20260830162504 90 232 7.0 17.0 0.00 0.00 0.00 40 1013.8
20260830162003 90 220 6.0 14.0 0.00 0.00 0.00 41 1013.8
20260830161502 90 203 5.0 14.0 0.00 0.00 0.00 41 1013.9
20260830161005 90 234 7.0 15.0 0.00 0.00 0.00 41 1014.0
20260830160501 90 216 6.0 16.0 0.00 0.00 0.00 42 1014.0
20260830160100 89 192 6.0 16.0 0.00 0.00 0.00 43 1013.9
20260830155600 89 178 7.0 14.0 0.00 0.00 0.00 42 1014.0
20260830154600 88 188 7.0 20.0 0.00 0.00 0.00 43 1013.9
20260830154058 88 153 9.0 20.0 0.00 0.00 0.00 43 1013.9
20260830153558 88 210 7.0 15.0 0.00 0.00 0.00 43 1013.7
20260830153057 87 174 8.0 16.0 0.00 0.00 0.00 44 1013.8
20260830152556 87 236 8.0 16.0 0.00 0.00 0.00 44 1013.7
20260830152055 87 165 5.0 16.0 0.00 0.00 0.00 45 1013.7
20260830151554 86 177 7.0 16.0 0.00 0.00 0.00 46 1013.8
20260830151052 86 209 6.0 15.0 0.00 0.00 0.00 47 1013.7
20260830150552 86 146 5.0 15.0 0.00 0.00 0.00 48 1013.6
20260830150051 85 222 5.0 10.0 0.00 0.00 0.00 49 1013.6
20260830145548 85 231 7.0 16.0 0.00 0.00 0.00 49 1013.6
20260830144557 84 194 6.0 18.0 0.00 0.00 0.00 51 1013.7
20260830144049 83 221 5.0 15.0 0.00 0.00 0.00 53 1013.7
20260830143545 83 219 9.0 15.0 0.00 0.00 0.00 52 1013.7
20260830143044 83 194 7.0 12.0 0.00 0.00 0.00 53 1013.9
20260830142543 82 205 7.0 12.0 0.00 0.00 0.00 54 1013.8
20260830142042 82 200 7.0 12.0 0.00 0.00 0.00 54 1013.8
20260830141541 82 212 7.0 14.0 0.00 0.00 0.00 55 1013.7
20260830141040 81 198 7.0 14.0 0.00 0.00 0.00 56 1013.8
20260830140538 81 172 6.0 13.0 0.00 0.00 0.00 56 1013.9
20260830140037 80 194 5.0 10.0 0.00 0.00 0.00 56 1013.9
20260830135536 80 209 5.0 10.0 0.00 0.00 0.00 56 1013.9
20260830134537 80 190 4.0 9.0 0.00 0.00 0.00 57 1013.7
20260830134038 80 199 3.0 9.0 0.00 0.00 0.00 58 1013.8
20260830133538 79 186 4.0 9.0 0.00 0.00 0.00 58 1013.9
20260830133033 79 200 4.0 9.0 0.00 0.00 0.00 58 1013.8
20260830132534 78 197 1.0 10.0 0.00 0.00 0.00 59 1013.9
20260830132032 78 168 4.0 13.0 0.00 0.00 0.00 59 1013.8
20260830131531 78 183 8.0 13.0 0.00 0.00 0.00 59 1013.8
20260830131031 78 195 7.0 12.0 0.00 0.00 0.00 59 1013.7
20260830130530 77 182 6.0 10.0 0.00 0.00 0.00 60 1013.7
20260830130030 77 179 5.0 9.0 0.00 0.00 0.00 61 1013.7
20260830125529 76 161 5.0 9.0 0.00 0.00 0.00 61 1013.6
20260830124530 76 190 3.0 6.0 0.00 0.00 0.00 62 1013.6
20260830124033 75 167 3.0 6.0 0.00 0.00 0.00 63 1013.7
20260830123530 75 188 2.0 5.0 0.00 0.00 0.00 63 1013.7
20260830123033 75 178 2.0 5.0 0.00 0.00 0.00 63 1013.6
20260830122529 74 173 3.0 5.0 0.00 0.00 0.00 63 1013.5